Location: Unspecified
(35.6961°N, 0.0000°E)
Time: 06:12:49
(UTC+00:00)

Envisat - Visible Passes

Search period start: 25 April 2019 00:00
Search period end: 05 May 2019 00:00
Orbit: 764 x 766 km, 98.2° (Epoch: 24 April)

Date Brightness Start Highest point End Pass type
(mag) Time Alt. Az. Time Alt. Az. Time Alt. Az.
25 Apr 4.7 19:15:25 10° SSW 19:20:02 35° W 19:24:41 10° NNW visible
27 Apr 5.6 19:42:06 10° SW 19:45:43 20° W 19:49:21 10° NW visible
28 Apr 4.2 19:03:56 10° S 19:08:47 46° W 19:13:39 10° NNW visible
30 Apr 5.3 19:30:17 10° SSW 19:34:25 25° W 19:38:34 10° NW visible
02 May 5.8 19:57:43 10° WSW 20:00:10 13° W 20:02:37 10° WNW visible
03 May 4.9 19:18:38 10° SSW 19:23:08 32° W 19:27:40 10° NW visible
